Volver al catálogo

H-2 R/B

ActivoHEO
NORAD 22980·ROCKET BODY·🇯🇵 Japan

Lanzado Feb 3, 1994 desde Tanegashima Space Center

Loading…

Próximos Pases (próximas 24 horas)

TLE

ActualizadoSource: Space-Track

Época: Sep 14, 2026, 11:42 UTC

1 22980U 94007C   26257.48778684  .00002428  00000-0  11333-2 0  9994
2 22980  28.5017  88.0137 6619083  26.3801 355.9641  3.12242503329656

Sigue H-2 R/B en tiempo real con AllMySat

Download on the App Store